Location: Bourg-d�Oueil
(42.8588°N, 0.4991°E)
Time: 17:41:54
(UTC+00:00)

Cosmos 1975 Rocket - Pass Details

Date: 16 June 2021
Orbit: 604 x 633 km, 82.5° (Epoch: 31 July)

Event Time Altitude Azimuth Distance (km) Brightness Sun altitude
Exits shadow 21:18:18 13° 188° (S) 1,773 5.0 -14.1°
Maximum altitude 21:22:11 88° 277° (W) 620 3.0 -14.6°
Drops below altitude 10° 21:26:36 10° 8° (N) 1,989 6.3 -15.1°
Sets 21:28:51 0° 8° (N) 2,905 7.2 -15.3°
